Location: Unspecified
(29.9680°N, 0.0000°E)
Time: 19:36:37
(UTC+00:00)

Tiangong 2 - Visible Passes

Search period start: 26 May 2019 00:00
Search period end: 05 June 2019 00:00
Orbit: 379 x 387 km, 42.8° (Epoch: 26 May)

Date Brightness Start Highest point End Pass type
(mag) Time Alt. Az. Time Alt. Az. Time Alt. Az.
26 May 4.3 21:25:45 10° NNW 21:26:28 12° N 21:26:28 12° N visible
28 May 3.6 21:01:49 10° NNW 21:03:43 17° NNE 21:03:43 17° NNE visible
29 May 3.8 20:02:20 10° N 20:03:43 12° NNE 20:05:07 10° NE visible
29 May 4.3 21:37:50 10° NW 21:38:25 14° NW 21:38:25 14° NW visible
30 May 2.6 20:38:00 10° NW 20:40:46 28° NNE 20:40:59 27° NE visible
31 May 3.4 19:38:21 10° NNW 19:40:32 17° NNE 19:42:43 10° ENE visible
31 May 3.4 21:14:21 10° WNW 21:15:44 23° WNW 21:15:44 23° WNW visible
01 Jun 1.5 20:14:20 10° NW 20:17:24 52° NNE 20:18:21 35° E visible
02 Jun 2.8 20:51:08 10° WNW 20:53:11 26° WSW 20:53:11 26° WSW visible
03 Jun 1.1 19:50:49 10° WNW 19:53:56 72° SW 19:55:54 20° SE visible
04 Jun 3.4 20:28:30 10° WSW 20:30:17 14° SW 20:30:52 14° SSW visible
